This is the latest recevied weather packets stored in our database for station/object W7TTE. If no packets are shown the sender has not sent any weather packets the latest 10 day(s).
| Time | Temp. | Humidity | Pressure | Rain* | Wind** | Luminosity | Snow |
|---|---|---|---|---|---|---|---|
| 1777756962 | 35.56° C | 15% | 1013.1 hPa | 0 mm | - | 567 W/m² | - |
| 1777755142 | 35° C | 16% | 1013.4 hPa | 0 mm | - | 730 W/m² | - |
| 1777752718 | 35° C | 17% | 1013.9 hPa | 0 mm | - | 768 W/m² | - |
| 1777752414 | 35.56° C | 16% | 1014 hPa | 0 mm | - | 782 W/m² | - |
| 1777751809 | 34.44° C | 17% | 1013.9 hPa | 0 mm | - | 784 W/m² | - |
| 1777751202 | 34.44° C | 17% | 1014.4 hPa | 0 mm | - | 785 W/m² | - |
| 1777750596 | 34.44° C | 17% | 1014.5 hPa | 0 mm | - | 788 W/m² | - |
| 1777749987 | 33.89° C | 19% | 1014.6 hPa | 0 mm | - | 786 W/m² | - |
| 1777749381 | 34.44° C | 19% | 1014.7 hPa | 0 mm | - | 785 W/m² | - |
| 1777749079 | 34.44° C | 19% | 1014.7 hPa | 0 mm | - | 784 W/m² | - |
| 1777748777 | 34.44° C | 20% | 1014.7 hPa | 0 mm | - | 785 W/m² | - |
| 1777747866 | 34.44° C | 20% | 1014.9 hPa | 0 mm | - | 780 W/m² | - |
| 1777747561 | 33.33° C | 21% | 1015 hPa | 0 mm | - | 776 W/m² | - |
| 1777747252 | 32.78° C | 21% | 1015.1 hPa | 0 mm | - | 772 W/m² | - |
| 1777746948 | 33.33° C | 21% | 1015.2 hPa | 0 mm | - | 768 W/m² | - |
| 1777746644 | 33.33° C | 22% | 1015.4 hPa | 0 mm | - | 761 W/m² | - |
| 1777746339 | 32.78° C | 22% | 1015.4 hPa | 0 mm | - | 757 W/m² | - |
| 1777746036 | 33.89° C | 22% | 1015.4 hPa | 0 mm | - | 750 W/m² | - |
| 1777745733 | 32.78° C | 22% | 1015.6 hPa | 0 mm | - | 746 W/m² | - |
| 1777745432 | 32.78° C | 23% | 1015.4 hPa | 0 mm | - | 738 W/m² | - |
| 1777745129 | 33.33° C | 22% | 1015.5 hPa | 0 mm | - | 733 W/m² | - |
| 1777744825 | 33.33° C | 23% | 1015.8 hPa | 0 mm | - | 723 W/m² | - |
| 1777743307 | 31.67° C | 24% | 1015.8 hPa | 0 mm | - | 683 W/m² | - |
| 1777741488 | 31.67° C | 24% | 1015.9 hPa | 0 mm | - | 625 W/m² | - |
| 1777740881 | 30.56° C | 25% | 1016.1 hPa | 0 mm | - | 603 W/m² | - |
* Rain latest hour (hover to see other rain measurements)
** Current wind speed in m/s (hover to see current wind gust speed)